Regional Weather Roundup
Issued by NWS

Home | Current Version | Previous Version | Text Only | Print | Product List | Glossary On
Versions: 1 2 3 4 5 6 7 8 9 10 11 12 13 14 15 16 17 18 19 20 21 22 23 24 25 26 27 28 29 30 31 32 33 34 35 36 37 38 39 40 41 42 43 44 45 46 47 48 49 50
000
ASUS43 KLSX 220707
RWRMO

WEATHER SUMMARY FOR MISSOURI
NATIONAL WEATHER SERVICE SPRINGFIELD MO
200 AM CDT WED OCT 22 2014

NOTE: "FAIR" INDICATES FEW OR NO CLOUDS BELOW 12,000 FEET WITH NO
       SIGNIFICANT WEATHER AND/OR OBSTRUCTIONS TO VISIBILITY.
       CURRENT SKY AND/OR WEATHER CONDITIONS ARE NOT AVAILABLE FOR
       CHILLICOTHE AND FARMINGTON.

MOZ001>031-035>038-043-044-053-054-220800-
...NORTHERN AND WESTERN MISSOURI...

CITY           SKY/WX    TMP DP  RH WIND       PRES   REMARKS
KANSAS CTY INT CLEAR     54  45  71 SE13      30.13R
KANSAS C DTWN  PTCLDY    58  45  62 E6        30.13R
LEE`S SUMMIT   CLEAR     54  45  71 SE9       30.14R
ST JOSEPH      PTCLDY    56  45  66 SE12      30.13R
CHILLICOTHE      N/A     50  42  74 CALM      30.19R
KIRKSVILLE     CLEAR     45  40  82 E8        30.21R

$$
MOZ066>068-077>081-088>096-101>105-220800-
...SOUTHWEST MISSOURI...

CITY           SKY/WX    TMP DP  RH WIND       PRES   REMARKS
SPRINGFIELD    CLEAR     54  45  71 SE12      30.14R
JOPLIN         PTCLDY    54  46  74 E6        30.12R

$$
MOZ032>034-039>042-045>050-055>058-069>072-220800-
...CENTRAL MISSOURI...

CITY           SKY/WX    TMP DP  RH WIND       PRES   REMARKS
COLUMBIA       CLEAR     47  41  80 E7        30.19R
JEFFERSON CITY CLEAR     49  42  77 E3        30.19R
ROLLA          CLEAR     48  41  76 E8        30.16S
SEDALIA        CLEAR     51  44  77 SE5       30.18R
WHITEMAN AFB   CLEAR     49  44  82 SE6       30.15R
OSAGE BEACH    CLEAR     48  43  81 E5        30.18R

$$
MOZ051-052-059>065-220800-
...EAST CENTRAL MISSOURI...

CITY           SKY/WX    TMP DP  RH WIND       PRES   REMARKS
ST LOUIS INTL  CLEAR     48  40  73 E8        30.23R
SPIRIT OF STL  CLEAR     46  40  79 E5        30.21R
ST CHARLES     CLEAR     43  40  89 E7        30.22S

$$
MOZ072>076-082>087-097>100-106>115-220800-
...SOUTH CENTRAL AND SOUTHEAST MISSOURI...

CITY           SKY/WX    TMP DP  RH WIND       PRES   REMARKS
CAPE GIRARDEAU CLEAR     46  41  82 NE5       30.18S
FARMINGTON     CLEAR     45  41  87 CALM      30.21R
POPLAR BLUFF   CLEAR     48  42  80 N3        30.17R
WEST PLAINS    CLEAR     50  43  77 E5        30.18R

$$



USA.gov is the U.S. government's official web portal to all federal, state and local government web resources and services.